Home   Weather   Fairfield Mountain   Past weeks
Flag for USA

Past Weather in Fairfield Mountain, North Carolina, USA — Yesterday and Last 2 Weeks

Now
50 °F

Clear.


Feels Like: 48 °F
Forecast: 70 / 47 °F
Wind: 6 mph from North

Location: Asheville Regional Airport

Current Time: Apr 4, 2020 at 2:57:21 am

Latest Report: Apr 4, 2020 at 1:54 am


Visibility: 10 mi

Pressure: 29.96 "Hg

Humidity: 50%

Dew Point: 32 °F

Location of Fairfield MountainLocation

Past Weather in Fairfield Mountain — Graph

°F

Fairfield Mountain Temperature Yesterday

Maximum temperature yesterday: 70 °F (at 4:54 pm)
Minimum temperature yesterday: 41 °F (at 5:54 am)
Average temperature yesterday: 55 °F

High & Low Weather Summary for the Past Weeks

 TemperatureHumidityPressure
High85 °F (Mar 28, 3:02 pm)97% (Mar 24, 6:42 pm)30.40 "Hg (Mar 24, 6:42 pm)
Low40 °F (Apr 1, 3:39 am)16% (Apr 3, 3:54 pm)29.62 "Hg (Mar 31, 4:54 pm)
Average55 °F69%30.02 "Hg
* Reported Mar 20 12:54 am — Apr 4 12:54 am, Fairfield Mountain. Weather by CustomWeather, © 2020

Note: Actual official high and low records may vary slightly from our data, if they occured in-between our weather recording intervals... More about our weather records

Fairfield Mountain Weather History for the Previous 24 Hours

Scroll right to see more
 ConditionsComfort  
Time TempWeatherWind HumidityBarometerVisibility
12:54 am
Sat, Apr 4
54 °FOvercast.6 mph43%29.98 "Hg10 mi
11:54 pm
Fri, Apr 3
55 °FOvercast.6 mph42%29.98 "Hg10 mi
10:54 pm54 °FClear.8 mph45%29.98 "Hg10 mi
9:54 pm59 °FPassing clouds.6 mph33%29.98 "Hg10 mi
8:54 pm61 °FClear.8 mph30%29.96 "Hg10 mi
7:54 pm63 °FClear.12 mph28%29.95 "Hg10 mi
6:54 pm67 °FSunny.12 mph24%29.94 "Hg10 mi
5:54 pm70 °FSunny.12 mph20%29.93 "Hg10 mi
4:54 pm70 °FSunny.14 mph18%29.93 "Hg10 mi
3:54 pm68 °FPassing clouds.12 mph16%29.95 "Hg10 mi
2:54 pm68 °FSunny.10 mph17%29.96 "Hg10 mi
1:54 pm67 °FSunny.14 mph19%29.98 "Hg10 mi
12:54 pm64 °FSunny.12 mph25%30.01 "Hg10 mi
11:54 am61 °FSunny.10 mph34%30.03 "Hg10 mi
10:54 am56 °FSunny.10 mph42%30.05 "Hg10 mi
9:54 am52 °FSunny.14 mph49%30.04 "Hg10 mi
8:54 am48 °FSunny.9 mph56%30.04 "Hg10 mi
7:54 am43 °FSunny.9 mph68%30.03 "Hg10 mi
6:54 am42 °FClear.12 mph71%30.02 "Hg10 mi
5:54 am41 °FClear.9 mph74%30.01 "Hg10 mi
4:54 am44 °FClear.8 mph65%30.00 "Hg10 mi
3:54 am45 °FClear.10 mph63%30.00 "Hg10 mi
2:54 am45 °FClear.14 mph63%30.01 "Hg10 mi
Weather by CustomWeather, © 2020

See weather overview

Advertising